Theta_e
323 318 315 319 321 321 321 316 315 320 322 319 320 324 330 332 333 332 333 334 335 337 341 343 345 345 347 351 355 357 352 362 360 356 358 359 359 364 362 363 361 359 358 358
318 315 321 323 322 322 319 317 316 320 322 319 320 319 320 325 332 333 333 333 335 337 338 343 343 343 345 349 354 359 362 367 366 363 362 363 360 362 365 365 365 364 365 365
314 318 322 321 320 318 318 316 316 316 321 320 319 317 319 330 334 335 335 335 336 337 338 341 342 345 347 346 349 350 363 367 367 371 367 367 365 367 361 362 366 366 368 367
316 321 320 318 317 320 313 320 319 318 315 309 320 308 318 322 326 332 334 335 334 337 340 343 343 343 344 338 337 347 361 367 366 365 360 366 361 351 355 364 366 366 367 367
313 316 317 316 318 320 316 321 319 318 315 313 313 310 313 321 321 318 328 335 336 340 342 339 344 342 347 346 344 345 366 366 368 361 357 355 355 353 356 359 355 366 368 367
313 319 319 318 320 321 322 318 318 318 314 306 313 312 311 316 319 316 322 329 337 337 343 342 347 343 347 347 352 361 362 365 364 357 351 349 347 348 349 349 356 356 360 359
311 311 316 319 315 320 318 314 306 305 305 304 315 311 312 319 322 321 324 334 337 339 342 345 340 340 346 350 353 357 361 359 362 357 351 348 345 357 355 359 354 354 352 352
304 303 311 316 315 313 313 312 307 302 301 306 315 308 313 321 325 329 331 335 337 342 345 344 343 345 348 350 356 359 358 356 355 354 356 354 355 354 354 353 355 351 348 343
304 305 314 314 316 315 312 310 316 309 309 305 309 314 318 322 324 329 329 334 336 341 344 346 348 348 352 352 355 356 353 355 357 354 354 351 355 353 351 351 350 343 342 339
309 304 312 314 315 316 313 315 307 308 301 300 305 312 310 320 322 332 329 332 337 343 345 347 348 350 350 351 353 353 354 355 354 351 349 348 348 349 348 345 342 341 340 341
311 308 308 313 311 309 310 308 309 309 308 303 302 309 323 326 325 328 326 337 340 341 346 346 348 349 350 350 350 349 349 347 347 348 348 347 344 343 342 339 339 339 340 340
312 308 304 307 314 316 313 311 310 306 304 307 308 309 326 326 325 329 326 340 342 345 346 345 347 348 347 347 349 346 346 346 345 347 346 342 341 341 337 338 337 337 337 339
312 306 302 304 309 313 310 311 311 311 310 307 305 308 326 324 323 323 330 340 346 346 346 347 347 348 350 348 344 344 345 344 343 343 338 337 335 335 335 336 335 335 335 334
314 307 305 301 306 310 308 309 311 309 306 306 306 314 321 321 322 328 327 343 343 344 346 347 345 347 347 344 342 344 344 344 340 339 338 337 335 336 332 334 333 332 332 331
311 304 307 308 309 309 309 309 310 308 309 307 309 312 322 323 325 336 340 342 342 343 343 343 343 343 344 342 345 345 342 342 339 337 335 335 336 334 333 332 331 329 328 328
312 305 307 305 308 308 306 309 310 310 310 310 310 310 318 331 340 340 341 341 341 341 342 343 346 343 342 341 343 342 340 339 339 337 334 334 334 333 331 330 328 329 327 328
311 308 306 302 308 307 303 307 309 310 312 311 307 313 318 327 337 339 342 343 342 341 342 343 341 342 340 340 342 339 338 336 336 334 333 332 332 330 328 328 328 327 326 327
314 314 312 304 307 298 308 314 313 310 311 313 313 315 318 320 336 340 346 344 344 343 344 344 343 341 341 341 338 339 335 336 334 332 331 331 330 327 327 327 327 328 327 327
316 313 309 306 304 307 309 313 312 310 310 314 313 315 318 320 337 322 339 344 346 345 347 345 345 343 343 339 338 337 333 332 331 330 329 329 329 327 327 326 327 329 330 330
315 315 311 308 304 301 312 315 319 317 307 317 317 316 317 324 324 336 345 344 346 345 347 345 345 344 340 337 336 334 331 330 329 328 328 330 330 328 326 328 329 331 331 331
311 312 308 307 305 309 318 319 322 309 311 320 320 320 321 326 329 341 345 344 346 347 346 347 344 338 337 336 334 332 331 329 329 328 328 330 330 328 329 330 332 331 332 331
310 308 307 311 307 303 322 320 315 325 329 329 329 325 330 333 335 342 340 342 346 346 344 342 339 336 336 336 335 330 329 330 330 329 328 328 329 324 324 329 330 331 331 328
308 313 308 310 309 321 324 322 329 327 327 330 330 331 327 331 336 339 341 345 346 345 342 340 338 337 336 336 335 329 330 330 329 328 326 327 329 330 329 329 329 326 329 325
317 317 314 313 317 320 323 324 332 329 328 328 331 333 328 328 336 339 342 344 344 342 340 339 336 334 334 336 334 332 330 331 328 327 327 328 327 328 328 325 324 324 327 321
316 316 313 315 317 319 323 325 328 328 331 333 332 333 331 330 341 344 344 345 343 341 340 337 333 333 332 332 329 329 329 329 326 326 325 324 324 323 325 325 328 326 328 320
317 314 313 312 321 318 316 320 331 333 333 333 334 334 336 343 343 345 344 345 342 341 338 336 335 330 329 330 329 328 329 329 327 325 324 322 320 320 321 321 323 311 312 310
Wind_Speed
18 15 16 22 17 14 22 30 34 20 7 8 13 1 16 15 17 18 15 15 15 16 13 17 12 13 15 12 12 15 12 12 11 9 8 4 3 3 5 5 8 8 5 6
19 19 21 23 8 15 7 14 11 9 4 6 14 16 30 30 17 16 15 17 15 16 15 16 13 12 13 10 2 9 7 9 6 8 7 4 5 2 0 3 6 7 7 6
21 21 20 20 20 8 11 15 7 10 17 8 8 6 11 14 13 13 14 16 17 15 18 16 13 11 14 17 11 18 10 8 7 7 6 3 5 1 3 3 4 3 3 3
21 22 23 15 21 10 12 12 9 16 10 14 10 11 7 5 3 4 13 14 17 16 18 16 13 18 20 19 13 23 13 11 8 8 5 4 2 2 4 1 2 3 4 4
21 23 22 21 21 16 16 19 5 9 15 17 22 4 5 15 6 18 17 16 16 17 21 18 14 13 18 20 18 15 10 9 5 3 10 3 6 4 5 4 2 3 4 3
20 21 23 21 20 14 13 19 16 13 11 13 9 11 4 7 10 18 32 30 18 20 19 17 14 12 7 7 9 14 10 6 7 4 7 4 9 4 0 7 5 6 4 6
20 22 23 16 24 16 18 17 12 12 13 7 6 3 7 9 23 28 31 22 17 20 21 17 14 12 9 10 8 12 10 8 7 7 1 1 3 3 1 4 4 6 4 3
19 19 22 12 16 16 21 20 14 16 15 4 4 5 6 14 33 31 11 18 18 24 21 20 17 14 11 9 10 12 10 7 7 6 5 3 4 2 3 6 3 5 5 6
19 22 17 25 18 21 20 19 20 18 19 17 11 3 14 11 17 5 8 17 17 24 22 19 15 14 10 10 10 11 10 8 7 7 7 5 3 3 5 4 6 7 7 6
23 20 21 21 20 19 19 19 16 12 17 18 14 11 7 21 12 6 5 12 14 19 21 19 14 13 12 11 8 10 7 7 8 8 9 6 6 6 6 6 6 6 6 5
22 22 20 16 17 15 14 17 19 17 12 12 14 5 19 25 20 11 3 9 13 17 18 16 16 13 14 13 12 11 9 9 8 7 8 7 7 6 6 6 6 5 5 5
18 14 17 21 13 18 16 18 19 13 14 15 16 2 16 23 9 0 3 11 14 15 17 17 17 14 19 14 13 12 11 10 9 8 7 7 6 6 6 5 6 6 6 5
8 13 16 22 19 14 13 15 20 20 17 17 16 4 14 19 16 10 11 16 14 16 17 17 16 13 14 13 12 11 9 8 9 8 8 7 6 6 6 6 7 6 5 6
8 16 16 16 15 15 21 18 21 20 15 15 18 9 13 27 28 27 18 17 17 16 17 16 16 14 13 14 12 10 10 9 9 9 8 6 6 6 7 6 6 7 7 7
12 18 17 17 20 21 19 18 19 19 22 19 18 5 17 19 19 25 20 17 18 18 19 17 17 16 13 14 11 10 11 8 10 8 7 6 7 7 7 7 6 7 7 6
13 15 15 18 19 20 20 17 14 21 20 20 23 21 17 17 22 19 22 22 20 19 18 18 19 17 16 15 12 11 10 10 9 8 8 7 6 7 6 6 6 5 5 6
15 13 13 15 16 19 20 18 16 14 16 16 18 18 15 6 19 22 21 19 20 20 20 19 18 18 16 16 12 12 11 10 9 9 8 7 7 7 6 6 5 5 5 5
10 10 8 12 14 17 15 17 19 20 20 16 18 17 13 15 19 19 22 19 20 18 19 20 17 17 18 17 16 12 12 10 9 9 9 8 8 8 6 6 5 4 4 4
17 15 12 10 12 15 17 19 19 18 16 15 19 17 13 13 29 19 25 18 18 18 17 16 17 18 15 16 14 12 11 10 9 9 9 8 8 8 6 6 4 3 2 3
21 19 12 11 15 16 14 18 12 15 12 9 14 16 16 12 10 18 22 21 21 21 19 18 18 17 17 16 14 11 11 10 9 9 8 7 8 8 6 5 4 2 3 2
16 15 13 14 12 14 16 18 15 15 8 14 15 17 16 13 9 18 24 21 21 18 19 18 18 16 17 15 14 12 11 10 10 9 8 7 7 7 6 4 3 4 2 1
12 3 11 14 14 13 12 13 11 9 17 16 14 6 11 15 12 26 22 14 19 21 19 19 16 15 15 14 12 12 11 11 11 10 9 8 7 7 7 6 4 5 4 6
1 10 6 1 6 19 16 13 22 12 8 18 14 14 16 24 38 25 18 22 20 19 18 17 16 15 13 13 11 11 11 11 11 10 9 8 7 6 7 5 6 5 7 7
9 12 3 4 12 13 18 10 14 16 10 16 24 3 14 20 30 27 18 20 18 18 17 16 17 16 13 11 10 11 11 10 10 10 9 7 5 4 5 6 6 8 2 5
8 8 9 12 13 9 18 27 7 6 19 14 17 12 12 19 19 22 19 17 17 17 15 14 12 15 13 11 11 11 10 10 9 9 8 8 7 7 7 7 3 3 3 2
7 8 15 8 0 4 6 27 16 5 8 12 15 11 5 17 19 21 17 15 15 15 15 16 14 15 13 11 12 11 11 10 9 8 7 8 8 8 8 7 4 4 6 11
Wind_Direction
224 236 237 252 266 143 188 178 207 233 145 228 273 266 116 187 189 175 181 170 184 183 189 163 201 174 162 151 157 144 199 159 146 154 194 188 204 203 195 221 181 202 213 215
231 225 244 255 218 268 279 267 244 23 139 232 106 197 108 249 201 185 181 170 187 185 167 161 191 178 155 58 177 163 188 157 189 176 172 185 164 204 212 253 172 199 211 211
228 236 224 261 273 222 257 271 115 159 263 276 291 179 180 169 194 192 191 185 185 184 168 168 181 159 82 90 330 298 174 162 193 249 137 123 147 116 187 234 209 185 222 222
241 239 258 215 261 268 241 275 324 315 288 285 210 285 164 297 164 295 207 199 189 183 168 159 170 105 120 131 200 252 229 162 203 233 141 161 166 165 255 155 153 200 182 210
234 242 245 256 237 224 261 284 193 282 294 286 284 176 257 271 356 333 278 221 203 167 152 163 167 144 161 168 185 232 150 154 186 51 51 50 50 45 356 287 171 257 176 137
246 251 241 249 258 259 260 268 276 279 271 270 7 15 134 172 211 194 252 265 193 162 156 164 151 151 186 154 173 127 128 131 131 115 125 136 142 112 322 271 266 224 146 74
243 246 258 238 243 225 246 251 261 245 251 265 74 98 163 109 279 232 220 216 181 155 144 148 148 152 187 129 125 125 122 141 118 126 100 34 82 91 314 319 347 33 26 46
231 226 240 221 256 255 228 250 254 255 261 167 314 235 158 105 261 211 170 158 166 138 151 155 157 165 144 155 140 116 129 133 135 151 106 75 85 111 41 29 343 46 28 58
241 234 230 222 217 234 254 249 244 275 280 276 238 179 136 165 359 242 152 147 158 144 150 144 157 150 142 120 124 125 140 162 160 135 139 136 104 81 83 32 17 45 37 18
247 259 244 214 211 214 237 260 250 229 254 272 272 204 116 81 283 5 299 150 149 140 144 148 155 129 121 130 116 112 125 142 122 112 107 110 104 95 94 72 58 64 43 35
232 255 265 271 197 213 219 241 260 279 281 276 262 134 150 152 179 173 266 156 154 144 142 144 138 145 130 125 127 125 135 119 132 112 105 112 108 98 76 81 66 55 62 46
218 251 253 260 238 205 231 255 236 248 258 267 281 188 170 162 129 276 94 167 156 149 146 151 139 154 125 136 135 147 155 148 126 110 116 111 94 82 80 58 80 52 51 40
227 235 251 254 235 199 242 228 260 245 242 257 276 123 172 125 110 319 249 174 154 149 145 140 139 146 123 132 134 146 153 133 133 150 134 123 116 100 85 76 66 69 53 54
302 277 239 247 246 246 208 223 243 252 256 243 250 162 152 167 165 198 211 171 161 155 145 137 142 132 137 131 145 166 145 145 152 107 94 97 85 64 77 82 74 79 62 55
259 256 266 265 259 270 273 230 211 239 268 278 285 271 199 183 184 165 151 159 163 156 149 149 150 140 152 140 153 150 143 130 105 111 119 97 89 86 84 86 78 65 61 65
240 249 265 274 267 267 272 271 262 220 224 255 272 277 298 115 136 155 158 166 169 155 155 160 142 148 155 156 155 141 130 123 137 130 113 112 114 113 105 95 88 94 86 72
217 230 236 252 255 252 261 258 262 261 270 236 239 258 270 174 159 159 158 164 169 162 158 152 159 152 157 159 147 141 134 133 134 124 124 129 131 116 114 116 115 102 91 79
285 288 269 244 253 254 263 262 249 246 253 255 266 263 245 256 176 150 153 165 164 166 156 148 154 157 160 155 150 139 139 137 131 133 132 139 135 127 136 129 129 127 110 95
266 265 255 257 255 253 261 252 253 247 241 239 259 264 253 246 98 106 249 176 160 154 146 148 156 157 155 145 136 138 139 139 142 139 141 150 143 140 149 149 134 115 161 184
241 249 242 240 271 260 257 244 258 262 258 277 236 247 246 201 172 152 161 168 156 157 146 162 156 143 134 133 136 145 143 145 146 142 145 153 147 147 154 136 158 182 252 249
229 237 241 230 248 267 285 297 337 253 244 236 253 247 239 185 196 161 148 156 146 147 154 156 144 139 135 138 147 148 148 152 141 138 141 149 148 152 138 171 188 205 239 270
277 315 238 227 232 230 4 324 360 359 360 19 6 61 13 54 336 137 126 131 147 148 143 133 132 132 138 142 146 149 157 138 135 140 144 150 156 183 163 186 191 241 230 235
143 259 220 266 309 307 306 31 16 34 10 336 336 74 89 79 64 330 141 141 144 144 140 139 134 139 143 144 152 156 136 142 146 148 151 162 180 214 153 193 206 229 239 252
68 10 351 249 256 293 330 1 39 348 339 324 315 141 149 132 149 173 147 142 145 140 139 137 144 147 142 140 143 128 140 148 153 152 162 167 177 179 181 219 224 234 194 35
358 135 309 267 265 349 319 297 67 355 314 307 304 298 164 174 154 131 138 142 137 136 142 137 154 137 141 139 132 140 147 159 158 158 173 173 194 196 200 238 199 96 94 168
268 168 198 299 9 127 347 310 304 264 283 285 287 285 155 128 126 125 130 127 132 143 138 144 136 130 139 144 138 149 158 172 166 174 191 196 172 190 206 200 175 226 185 195